Location: LDNL
(36.4545°S, 141.6685°E)
Time: 12:05:18
(UTC+10:00)

Vanguard 3 - Pass Details

Date: 30 January 2022
Orbit: 508 x 3258 km, 33.3° (Epoch: 25 May)

Event Time Altitude Azimuth Distance (km) Brightness Sun altitude
Rises 00:13:13 0° 305° (NW) 3,475 - -31.4°
Reaches altitude 10° 00:15:20 10° 310° (NW) 2,773 - -31.6°
Maximum altitude 00:21:59 53° 25° (NNE) 1,724 - -32.2°
Exits shadow 00:27:52 28° 86° (E) 3,021 9.7 -32.6°
Drops below altitude 10° 00:33:51 10° 97° (E) 4,824 10.9 -33.1°
Sets 00:38:45 0° 100° (E) 6,261 11.6 -33.4°
